Time,TemperatureF,DewpointF,PressureIn,WindDirection,WindDirectionDegrees,WindSpeedMPH,WindSpeedGustMPH,Humidity,HourlyPrecipIn,Conditions,Clouds,dailyrainin,SolarRadiationWatts/m^2,SoftwareType,DateUTC
2013-02-11 00:00:00,35.9,34.6,30.13,NW,319,3.0,3.0,95,0.00,,,0.00,0,Wunderground v.1.15,2013-02-11 05:00:00,
2013-02-11 00:01:00,35.8,34.5,30.13,NW,319,3.0,3.0,95,0.00,,,0.00,0,Wunderground v.1.15,2013-02-11 05:01:00,
2013-02-11 00:02:00,35.9,34.6,30.12,NW,320,2.0,3.0,95,0.00,,,0.00,0,Wunderground v.1.15,2013-02-11 05:02:00,
2013-02-11 00:06:00,35.8,34.8,30.12,NW,317,1.0,3.0,96,0.00,,,0.00,0,Wunderground v.1.15,2013-02-11 05:06:00,
2013-02-11 00:11:00,35.6,34.6,30.12,NW,318,1.0,1.0,96,0.00,,,0.00,0,Wunderground v.1.15,2013-02-11 05:11:00,
2013-02-11 00:16:00,35.6,34.6,30.12,ESE,107,1.0,2.0,96,0.00,,,0.00,0,Wunderground v.1.15,2013-02-11 05:16:00,
2013-02-11 00:21:00,35.6,34.8,30.12,NNE,19,1.0,2.0,97,0.00,,,0.00,0,Wunderground v.1.15,2013-02-11 05:21:00,
2013-02-11 00:27:00,35.7,34.9,30.11,NNE,18,0.0,2.0,97,0.00,,,0.00,0,Wunderground v.1.15,2013-02-11 05:27:00,
2013-02-11 00:32:00,35.8,35.3,30.11,NNE,19,0.0,0.0,98,0.00,,,0.00,0,Wunderground v.1.15,2013-02-11 05:32:00,
2013-02-11 00:38:00,35.8,35.0,30.11,NNE,28,1.0,2.0,97,0.00,,,0.00,0,Wunderground v.1.15,2013-02-11 05:38:00,
2013-02-11 00:43:00,35.8,35.0,30.10,ENE,58,2.0,8.0,97,0.00,,,0.00,0,Wunderground v.1.15,2013-02-11 05:43:00,
2013-02-11 00:49:00,35.8,34.5,30.10,NE,44,4.0,8.0,95,0.00,,,0.00,0,Wunderground v.1.15,2013-02-11 05:49:00,
2013-02-11 00:54:00,36.0,34.7,30.10,NE,45,5.0,5.0,95,0.00,,,0.00,0,Wunderground v.1.15,2013-02-11 05:54:00,
2013-02-11 00:59:00,36.2,34.9,30.10,NNE,32,4.0,5.0,95,0.00,,,0.00,0,Wunderground v.1.15,2013-02-11 05:59:00,
2013-02-11 01:05:00,36.4,35.4,30.10,North,9,4.0,4.0,96,0.00,,,0.00,0,Wunderground v.1.15,2013-02-11 06:05:00,
2013-02-11 01:10:00,36.6,35.6,30.10,NNE,20,4.0,5.0,96,0.00,,,0.00,0,Wunderground v.1.15,2013-02-11 06:10:00,
2013-02-11 01:16:00,36.7,35.4,30.09,NE,39,3.0,5.0,95,0.00,,,0.00,0,Wunderground v.1.15,2013-02-11 06:16:00,
2013-02-11 01:21:00,36.8,35.8,30.10,NE,39,1.0,1.0,96,0.00,,,0.00,0,Wunderground v.1.15,2013-02-11 06:21:00,
2013-02-11 01:27:00,36.8,35.8,30.09,NNE,22,2.0,4.0,96,0.00,,,0.00,0,Wunderground v.1.15,2013-02-11 06:27:00,
2013-02-11 01:32:00,36.9,35.9,30.09,North,5,3.0,5.0,96,0.00,,,0.00,0,Wunderground v.1.15,2013-02-11 06:32:00,
2013-02-11 01:37:00,37.0,36.0,30.09,NNE,17,4.0,5.0,96,0.00,,,0.00,0,Wunderground v.1.15,2013-02-11 06:37:00,
2013-02-11 01:42:00,37.0,35.7,30.08,NNE,17,3.0,4.0,95,0.00,,,0.00,0,Wunderground v.1.15,2013-02-11 06:42:00,
2013-02-11 01:48:00,37.2,36.2,30.09,NNE,28,3.0,4.0,96,0.00,,,0.00,0,Wunderground v.1.15,2013-02-11 06:48:00,
2013-02-11 01:53:00,37.2,36.2,30.08,NNE,17,3.0,6.0,96,0.00,,,0.00,0,Wunderground v.1.15,2013-02-11 06:53:00,
2013-02-11 01:58:00,37.2,36.2,30.08,NNE,19,4.0,6.0,96,0.00,,,0.00,0,Wunderground v.1.15,2013-02-11 06:58:00,
2013-02-11 02:04:00,37.1,36.1,30.08,NNE,15,4.0,5.0,96,0.00,,,0.00,0,Wunderground v.1.15,2013-02-11 07:04:00,
2013-02-11 02:10:00,37.0,36.0,30.07,NNE,26,4.0,4.0,96,0.00,,,0.00,0,Wunderground v.1.15,2013-02-11 07:10:00,
2013-02-11 02:15:00,37.0,36.2,30.08,NNE,20,4.0,4.0,97,0.00,,,0.00,0,Wunderground v.1.15,2013-02-11 07:15:00,
2013-02-11 02:20:00,37.0,36.2,30.07,North,355,3.0,4.0,97,0.00,,,0.00,0,Wunderground v.1.15,2013-02-11 07:20:00,
2013-02-11 02:26:00,37.0,36.5,30.07,North,355,3.0,4.0,98,0.00,,,0.00,0,Wunderground v.1.15,2013-02-11 07:26:00,
2013-02-11 02:31:00,37.1,36.6,30.07,North,355,2.0,3.0,98,0.00,,,0.00,0,Wunderground v.1.15,2013-02-11 07:31:00,
2013-02-11 02:37:00,37.2,36.7,30.06,North,5,2.0,3.0,98,0.00,,,0.01,0,Wunderground v.1.15,2013-02-11 07:37:00,
2013-02-11 02:42:00,37.1,36.6,30.06,North,5,2.0,3.0,98,0.00,,,0.01,0,Wunderground v.1.15,2013-02-11 07:42:00,
2013-02-11 02:47:00,37.1,36.6,30.05,North,9,3.0,4.0,98,0.05,,,0.02,0,Wunderground v.1.15,2013-02-11 07:47:00,
2013-02-11 02:53:00,37.1,36.6,30.05,North,5,3.0,3.0,98,0.05,,,0.02,0,Wunderground v.1.15,2013-02-11 07:53:00,
2013-02-11 02:58:00,37.2,36.9,30.05,North,9,2.0,3.0,99,0.05,,,0.02,0,Wunderground v.1.15,2013-02-11 07:58:00,
2013-02-11 03:04:00,37.2,36.9,30.05,North,5,2.0,3.0,99,0.00,,,0.02,0,Wunderground v.1.15,2013-02-11 08:04:00,
2013-02-11 03:10:00,37.1,36.8,30.04,North,9,2.0,2.0,99,0.00,,,0.02,0,Wunderground v.1.15,2013-02-11 08:10:00,
2013-02-11 03:15:00,37.0,36.7,30.03,North,5,1.0,2.0,99,0.00,,,0.02,0,Wunderground v.1.15,2013-02-11 08:15:00,
2013-02-11 03:20:00,36.9,36.6,30.02,NNE,19,2.0,2.0,99,0.00,,,0.02,0,Wunderground v.1.15,2013-02-11 08:20:00,
2013-02-11 03:26:00,36.8,36.8,30.02,NNE,26,3.0,5.0,100,0.00,,,0.02,0,Wunderground v.1.15,2013-02-11 08:26:00,
2013-02-11 03:31:00,36.7,36.7,30.01,NNE,28,4.0,4.0,100,0.00,,,0.02,0,Wunderground v.1.15,2013-02-11 08:31:00,
2013-02-11 03:36:00,36.6,36.6,30.01,NE,42,3.0,4.0,100,0.00,,,0.02,0,Wunderground v.1.15,2013-02-11 08:36:00,
2013-02-11 03:42:00,36.5,36.5,30.01,NE,41,2.0,4.0,100,0.00,,,0.02,0,Wunderground v.1.15,2013-02-11 08:42:00,
2013-02-11 03:47:00,36.5,36.5,30.01,NE,44,3.0,4.0,100,0.00,,,0.02,0,Wunderground v.1.15,2013-02-11 08:47:00,
2013-02-11 03:53:00,36.5,36.5,30.01,NE,44,2.0,3.0,100,0.00,,,0.02,0,Wunderground v.1.15,2013-02-11 08:53:00,
2013-02-11 03:58:00,36.6,36.6,30.00,NE,44,2.0,4.0,100,0.00,,,0.02,0,Wunderground v.1.15,2013-02-11 08:58:00,
2013-02-11 04:04:00,36.8,36.8,30.00,NE,43,1.0,2.0,100,0.00,,,0.02,0,Wunderground v.1.15,2013-02-11 09:04:00,
2013-02-11 04:10:00,36.9,36.9,30.00,NE,43,2.0,2.0,100,0.00,,,0.02,0,Wunderground v.1.15,2013-02-11 09:10:00,
2013-02-11 04:15:00,37.0,37.0,29.99,NE,44,2.0,3.0,100,0.00,,,0.02,0,Wunderground v.1.15,2013-02-11 09:15:00,
2013-02-11 04:20:00,37.0,37.0,29.99,NE,43,2.0,2.0,100,0.00,,,0.02,0,Wunderground v.1.15,2013-02-11 09:20:00,
2013-02-11 04:26:00,37.0,37.0,29.98,NE,43,1.0,4.0,100,0.00,,,0.02,0,Wunderground v.1.15,2013-02-11 09:26:00,
2013-02-11 04:31:00,37.0,37.0,29.98,NE,44,2.0,3.0,100,0.00,,,0.02,0,Wunderground v.1.15,2013-02-11 09:31:00,
2013-02-11 04:37:00,37.2,37.2,29.98,NE,43,2.0,4.0,100,0.00,,,0.02,0,Wunderground v.1.15,2013-02-11 09:37:00,
2013-02-11 04:42:00,37.2,37.2,29.98,NNE,28,2.0,4.0,100,0.00,,,0.02,0,Wunderground v.1.15,2013-02-11 09:42:00,
2013-02-11 04:47:00,37.3,37.3,29.98,NNE,28,2.0,4.0,100,0.00,,,0.02,0,Wunderground v.1.15,2013-02-11 09:47:00,
2013-02-11 04:52:00,37.4,37.4,29.98,NNE,27,1.0,2.0,100,0.00,,,0.02,0,Wunderground v.1.15,2013-02-11 09:52:00,
2013-02-11 04:58:00,37.5,37.5,29.97,NNE,26,1.0,2.0,100,0.00,,,0.02,0,Wunderground v.1.15,2013-02-11 09:58:00,
2013-02-11 05:04:00,37.6,37.6,29.97,NNE,29,1.0,1.0,100,0.00,,,0.02,0,Wunderground v.1.15,2013-02-11 10:04:00,
2013-02-11 05:09:00,37.7,37.4,29.97,NNE,27,0.0,1.0,99,0.00,,,0.02,0,Wunderground v.1.15,2013-02-11 10:09:00,
2013-02-11 05:15:00,37.8,37.5,29.97,NNE,28,0.0,0.0,99,0.00,,,0.02,0,Wunderground v.1.15,2013-02-11 10:15:00,
2013-02-11 05:20:00,37.8,37.5,29.97,NNE,28,0.0,0.0,99,0.00,,,0.02,0,Wunderground v.1.15,2013-02-11 10:20:00,
2013-02-11 05:25:00,37.7,37.4,29.97,NNE,28,0.0,0.0,99,0.00,,,0.02,0,Wunderground v.1.15,2013-02-11 10:25:00,
2013-02-11 05:30:00,37.7,37.4,29.97,NNE,28,0.0,0.0,99,0.00,,,0.02,0,Wunderground v.1.15,2013-02-11 10:30:00,
2013-02-11 05:36:00,37.7,37.2,29.96,NNE,28,0.0,0.0,98,0.00,,,0.02,0,Wunderground v.1.15,2013-02-11 10:36:00,
2013-02-11 05:41:00,37.7,37.2,29.96,NNE,28,0.0,0.0,98,0.00,,,0.02,0,Wunderground v.1.15,2013-02-11 10:41:00,
2013-02-11 05:47:00,37.7,37.2,29.96,NNE,26,0.0,0.0,98,0.00,,,0.02,0,Wunderground v.1.15,2013-02-11 10:47:00,
2013-02-11 05:52:00,37.7,37.4,29.96,NNE,28,0.0,0.0,99,0.00,,,0.02,0,Wunderground v.1.15,2013-02-11 10:52:00,
2013-02-11 05:57:00,37.6,37.1,29.96,NNE,27,0.0,0.0,98,0.00,,,0.02,0,Wunderground v.1.15,2013-02-11 10:57:00,
2013-02-11 06:03:00,37.6,37.3,29.96,NNE,28,0.0,0.0,99,0.00,,,0.02,0,Wunderground v.1.15,2013-02-11 11:03:00,
2013-02-11 06:09:00,37.6,37.3,29.95,NNE,28,0.0,0.0,99,0.00,,,0.02,0,Wunderground v.1.15,2013-02-11 11:09:00,
2013-02-11 06:14:00,37.5,37.2,29.95,NNE,28,0.0,0.0,99,0.00,,,0.02,0,Wunderground v.1.15,2013-02-11 11:14:00,
2013-02-11 06:20:00,37.6,37.3,29.95,NNE,29,0.0,0.0,99,0.00,,,0.02,0,Wunderground v.1.15,2013-02-11 11:20:00,
2013-02-11 06:25:00,37.7,37.4,29.95,NNE,28,0.0,0.0,99,0.00,,,0.02,0,Wunderground v.1.15,2013-02-11 11:25:00,
2013-02-11 06:30:00,37.7,37.4,29.95,NNE,27,0.0,0.0,99,0.00,,,0.02,0,Wunderground v.1.15,2013-02-11 11:30:00,
2013-02-11 06:36:00,37.7,37.4,29.95,NNE,27,0.0,0.0,99,0.00,,,0.02,0,Wunderground v.1.15,2013-02-11 11:36:00,
2013-02-11 06:41:00,37.7,37.4,29.95,NNE,28,0.0,0.0,99,0.00,,,0.02,0,Wunderground v.1.15,2013-02-11 11:41:00,
2013-02-11 06:46:00,37.7,37.4,29.95,NNE,28,0.0,0.0,99,0.00,,,0.02,0,Wunderground v.1.15,2013-02-11 11:46:00,
2013-02-11 06:51:00,37.7,37.4,29.95,NNE,27,0.0,0.0,99,0.00,,,0.02,0,Wunderground v.1.15,2013-02-11 11:51:00,
2013-02-11 06:57:00,37.7,37.4,29.95,NNE,26,0.0,0.0,99,0.00,,,0.02,0,Wunderground v.1.15,2013-02-11 11:57:00,
2013-02-11 07:03:00,37.8,37.5,29.94,NNE,28,0.0,0.0,99,0.00,,,0.02,0,Wunderground v.1.15,2013-02-11 12:03:00,
2013-02-11 07:08:00,37.8,37.5,29.94,NNE,28,0.0,0.0,99,0.00,,,0.02,0,Wunderground v.1.15,2013-02-11 12:08:00,
2013-02-11 07:14:00,37.8,37.5,29.94,NNE,26,0.0,0.0,99,0.00,,,0.02,0,Wunderground v.1.15,2013-02-11 12:14:00,
2013-02-11 07:19:00,37.8,37.5,29.94,NNE,26,0.0,0.0,99,0.00,,,0.02,0,Wunderground v.1.15,2013-02-11 12:19:00,
2013-02-11 07:24:00,37.9,37.6,29.94,NNE,26,0.0,0.0,99,0.00,,,0.02,0,Wunderground v.1.15,2013-02-11 12:24:00,
2013-02-11 07:30:00,38.0,37.7,29.95,NNE,28,0.0,0.0,99,0.00,,,0.02,0,Wunderground v.1.15,2013-02-11 12:30:00,
2013-02-11 07:35:00,38.0,37.7,29.94,NNE,26,0.0,0.0,99,0.00,,,0.02,9,Wunderground v.1.15,2013-02-11 12:35:00,
2013-02-11 07:40:00,37.8,37.5,29.94,NNE,28,0.0,0.0,99,0.00,,,0.02,16,Wunderground v.1.15,2013-02-11 12:40:00,
2013-02-11 07:46:00,37.6,37.3,29.94,NNE,28,0.0,1.0,99,0.00,,,0.02,14,Wunderground v.1.15,2013-02-11 12:46:00,
2013-02-11 07:51:00,37.6,37.3,29.93,NNE,28,0.0,0.0,99,0.00,,,0.02,28,Wunderground v.1.15,2013-02-11 12:51:00,
2013-02-11 07:57:00,37.5,37.2,29.93,NNE,28,0.0,0.0,99,0.00,,,0.02,25,Wunderground v.1.15,2013-02-11 12:57:00,
2013-02-11 08:02:00,37.5,37.2,29.94,NNE,27,0.0,0.0,99,0.00,,,0.02,58,Wunderground v.1.15,2013-02-11 13:02:00,
2013-02-11 08:08:00,37.7,37.7,29.93,NNE,28,0.0,0.0,100,0.00,,,0.02,97,Wunderground v.1.15,2013-02-11 13:08:00,
2013-02-11 08:13:00,37.8,37.8,29.93,NNE,28,0.0,0.0,100,0.00,,,0.02,46,Wunderground v.1.15,2013-02-11 13:13:00,
2013-02-11 08:19:00,37.8,37.8,29.93,NNE,28,0.0,0.0,100,0.00,,,0.02,72,Wunderground v.1.15,2013-02-11 13:19:00,
2013-02-11 08:24:00,37.8,37.8,29.93,NNE,28,0.0,0.0,100,0.00,,,0.02,69,Wunderground v.1.15,2013-02-11 13:24:00,
2013-02-11 08:30:00,37.8,37.8,29.94,NNE,26,0.0,1.0,100,0.00,,,0.02,98,Wunderground v.1.15,2013-02-11 13:30:00,
2013-02-11 08:35:00,38.0,38.0,29.94,NNE,28,0.0,1.0,100,0.00,,,0.02,84,Wunderground v.1.15,2013-02-11 13:35:00,
2013-02-11 08:40:00,38.1,38.1,29.94,NNE,28,0.0,0.0,100,0.00,,,0.02,97,Wunderground v.1.15,2013-02-11 13:40:00,
2013-02-11 08:46:00,38.2,38.2,29.94,NNE,26,0.0,2.0,100,0.00,,,0.02,91,Wunderground v.1.15,2013-02-11 13:46:00,
2013-02-11 08:52:00,38.3,38.3,29.94,NNE,27,0.0,0.0,100,0.00,,,0.02,62,Wunderground v.1.15,2013-02-11 13:52:00,
2013-02-11 08:57:00,38.2,38.2,29.94,NNE,28,0.0,0.0,100,0.00,,,0.02,63,Wunderground v.1.15,2013-02-11 13:57:00,
2013-02-11 09:03:00,38.3,38.3,29.94,NNE,28,0.0,2.0,100,0.00,,,0.02,63,Wunderground v.1.15,2013-02-11 14:03:00,
2013-02-11 09:09:00,38.3,38.3,29.94,NNE,28,0.0,2.0,100,0.00,,,0.02,311,Wunderground v.1.15,2013-02-11 14:09:00,
2013-02-11 09:14:00,38.6,38.6,29.94,ENE,74,0.0,3.0,100,0.00,,,0.02,309,Wunderground v.1.15,2013-02-11 14:14:00,
2013-02-11 09:20:00,39.0,39.0,29.93,South,169,0.0,3.0,100,0.00,,,0.02,260,Wunderground v.1.15,2013-02-11 14:20:00,
2013-02-11 09:25:00,39.2,39.2,29.93,SSE,167,1.0,3.0,100,0.00,,,0.02,346,Wunderground v.1.15,2013-02-11 14:25:00,
2013-02-11 09:31:00,39.5,39.5,29.92,SSW,213,1.0,2.0,100,0.00,,,0.02,281,Wunderground v.1.15,2013-02-11 14:31:00,
2013-02-11 09:36:00,39.5,39.5,29.92,SSW,213,0.0,2.0,100,0.00,,,0.02,306,Wunderground v.1.15,2013-02-11 14:36:00,
2013-02-11 09:42:00,39.6,39.6,29.91,SW,215,0.0,2.0,100,0.00,,,0.02,186,Wunderground v.1.15,2013-02-11 14:42:00,
2013-02-11 09:47:00,39.5,39.5,29.91,SW,218,0.0,2.0,100,0.00,,,0.02,148,Wunderground v.1.15,2013-02-11 14:47:00,
2013-02-11 09:52:00,39.6,39.6,29.91,SW,216,0.0,0.0,100,0.00,,,0.02,406,Wunderground v.1.15,2013-02-11 14:52:00,
2013-02-11 09:58:00,40.1,40.1,29.91,SE,142,1.0,5.0,100,0.00,,,0.02,330,Wunderground v.1.15,2013-02-11 14:58:00,
2013-02-11 10:04:00,40.3,40.0,29.91,SE,128,2.0,2.0,99,0.00,,,0.02,490,Wunderground v.1.15,2013-02-11 15:04:00,
2013-02-11 10:09:00,40.5,40.2,29.91,SE,130,0.0,2.0,99,0.00,,,0.02,613,Wunderground v.1.15,2013-02-11 15:09:00,
2013-02-11 10:15:00,41.1,40.8,29.90,SSW,196,0.0,1.0,99,0.00,,,0.02,520,Wunderground v.1.15,2013-02-11 15:15:00,
2013-02-11 10:20:00,41.6,41.6,29.90,SE,142,1.0,1.0,100,0.00,,,0.02,171,Wunderground v.1.15,2013-02-11 15:20:00,
2013-02-11 10:25:00,41.8,41.3,29.89,SE,138,1.0,1.0,98,0.00,,,0.02,255,Wunderground v.1.15,2013-02-11 15:25:00,
2013-02-11 10:31:00,41.9,41.1,29.89,SE,140,0.0,0.0,97,0.00,,,0.02,345,Wunderground v.1.15,2013-02-11 15:31:00,
2013-02-11 10:36:00,42.0,41.2,29.88,SE,140,0.0,0.0,97,0.00,,,0.02,403,Wunderground v.1.15,2013-02-11 15:36:00,
2013-02-11 10:42:00,42.5,42.0,29.88,SE,142,0.0,2.0,98,0.00,,,0.02,526,Wunderground v.1.15,2013-02-11 15:42:00,
2013-02-11 10:47:00,43.0,42.5,29.87,SE,136,1.0,3.0,98,0.00,,,0.02,598,Wunderground v.1.15,2013-02-11 15:47:00,
2013-02-11 10:52:00,43.3,42.5,29.88,ESE,112,2.0,3.0,97,0.00,,,0.02,636,Wunderground v.1.15,2013-02-11 15:52:00,
2013-02-11 10:58:00,43.7,42.6,29.87,ESE,104,2.0,3.0,96,0.00,,,0.02,628,Wunderground v.1.15,2013-02-11 15:58:00,
2013-02-11 11:03:00,44.2,43.1,29.87,ESE,112,1.0,4.0,96,0.00,,,0.02,448,Wunderground v.1.15,2013-02-11 16:03:00,
2013-02-11 11:09:00,44.5,43.4,29.86,ESE,117,2.0,4.0,96,0.00,,,0.02,591,Wunderground v.1.15,2013-02-11 16:09:00,
2013-02-11 11:14:00,44.9,43.6,29.85,ESE,109,1.0,2.0,95,0.00,,,0.02,439,Wunderground v.1.15,2013-02-11 16:14:00,
2013-02-11 11:20:00,45.6,43.7,29.85,North,360,0.0,1.0,93,0.00,,,0.02,647,Wunderground v.1.15,2013-02-11 16:20:00,
2013-02-11 11:25:00,46.2,44.6,29.84,North,360,1.0,1.0,94,0.00,,,0.02,519,Wunderground v.1.15,2013-02-11 16:25:00,
2013-02-11 11:31:00,46.8,44.9,29.83,SE,134,0.0,3.0,93,0.00,,,0.02,568,Wunderground v.1.15,2013-02-11 16:31:00,
2013-02-11 11:36:00,47.3,45.4,29.83,SE,136,1.0,4.0,93,0.00,,,0.02,643,Wunderground v.1.15,2013-02-11 16:36:00,
2013-02-11 11:41:00,47.8,45.9,29.82,East,92,2.0,5.0,93,0.00,,,0.02,570,Wunderground v.1.15,2013-02-11 16:41:00,
2013-02-11 11:47:00,48.5,46.3,29.81,NE,54,1.0,5.0,92,0.00,,,0.02,476,Wunderground v.1.15,2013-02-11 16:47:00,
2013-02-11 11:52:00,48.9,46.4,29.81,ESE,105,2.0,3.0,91,0.00,,,0.02,591,Wunderground v.1.15,2013-02-11 16:52:00,
2013-02-11 11:58:00,49.5,47.0,29.81,East,88,2.0,3.0,91,0.00,,,0.02,715,Wunderground v.1.15,2013-02-11 16:58:00,
2013-02-11 12:04:00,49.9,47.1,29.80,NE,44,2.0,4.0,90,0.00,,,0.02,601,Wunderground v.1.15,2013-02-11 17:04:00,
2013-02-11 12:09:00,50.4,47.0,29.79,East,83,3.0,5.0,88,0.00,,,0.02,652,Wunderground v.1.15,2013-02-11 17:09:00,
2013-02-11 12:14:00,50.6,47.2,29.79,ENE,74,4.0,5.0,88,0.00,,,0.02,482,Wunderground v.1.15,2013-02-11 17:14:00,
2013-02-11 12:20:00,51.0,47.6,29.78,East,82,4.0,4.0,88,0.00,,,0.02,408,Wunderground v.1.15,2013-02-11 17:20:00,
2013-02-11 12:25:00,51.4,48.3,29.77,ENE,57,4.0,6.0,89,0.00,,,0.02,487,Wunderground v.1.15,2013-02-11 17:25:00,
2013-02-11 12:30:00,52.1,49.0,29.77,East,100,4.0,4.0,89,0.00,,,0.02,652,Wunderground v.1.15,2013-02-11 17:30:00,
2013-02-11 12:36:00,53.6,49.2,29.76,SE,130,3.0,9.0,85,0.00,,,0.02,459,Wunderground v.1.15,2013-02-11 17:36:00,
2013-02-11 12:41:00,54.3,49.9,29.76,South,190,4.0,4.0,85,0.00,,,0.02,362,Wunderground v.1.15,2013-02-11 17:41:00,
2013-02-11 12:47:00,55.4,50.3,29.75,SW,220,5.0,15.0,83,0.00,,,0.02,334,Wunderground v.1.15,2013-02-11 17:47:00,
2013-02-11 12:52:00,57.4,51.3,29.75,South,188,8.0,11.0,80,0.00,,,0.02,322,Wunderground v.1.15,2013-02-11 17:52:00,
2013-02-11 12:57:00,59.7,51.4,29.75,SW,236,10.0,14.0,74,0.00,,,0.02,362,Wunderground v.1.15,2013-02-11 17:57:00,
2013-02-11 13:02:00,61.7,52.2,29.74,WSW,240,10.0,16.0,71,0.00,,,0.02,555,Wunderground v.1.15,2013-02-11 18:02:00,
2013-02-11 13:08:00,63.3,52.2,29.73,West,259,10.0,18.0,67,0.00,,,0.02,670,Wunderground v.1.15,2013-02-11 18:08:00,
2013-02-11 13:13:00,64.4,51.1,29.73,WSW,257,11.0,19.0,62,0.00,,,0.02,744,Wunderground v.1.15,2013-02-11 18:13:00,
2013-02-11 13:19:00,65.4,51.1,29.72,SW,227,11.0,19.0,60,0.00,,,0.02,645,Wunderground v.1.15,2013-02-11 18:19:00,
2013-02-11 13:24:00,65.7,50.5,29.72,West,271,13.0,14.0,58,0.00,,,0.02,643,Wunderground v.1.15,2013-02-11 18:24:00,
2013-02-11 13:30:00,65.9,49.3,29.72,SSW,200,13.0,14.0,55,0.00,,,0.02,244,Wunderground v.1.15,2013-02-11 18:30:00,
2013-02-11 13:35:00,65.5,48.9,29.72,WSW,247,14.0,34.0,55,0.00,,,0.02,612,Wunderground v.1.15,2013-02-11 18:35:00,
2013-02-11 13:40:00,65.3,49.2,29.71,WSW,251,15.0,16.0,56,0.00,,,0.02,529,Wunderground v.1.15,2013-02-11 18:40:00,
2013-02-11 13:46:00,65.3,47.7,29.71,SW,215,16.0,27.0,53,0.00,,,0.02,339,Wunderground v.1.15,2013-02-11 18:46:00,
2013-02-11 13:51:00,65.3,47.2,29.70,WSW,250,16.0,18.0,52,0.00,,,0.02,628,Wunderground v.1.15,2013-02-11 18:51:00,
2013-02-11 13:57:00,65.3,47.2,29.70,WSW,242,15.0,19.0,52,0.00,,,0.02,229,Wunderground v.1.15,2013-02-11 18:57:00,
2013-02-11 14:03:00,64.8,47.3,29.70,SW,236,14.0,26.0,53,0.00,,,0.02,383,Wunderground v.1.15,2013-02-11 19:03:00,
2013-02-11 14:08:00,64.7,47.2,29.70,WSW,245,13.0,26.0,53,0.00,,,0.02,271,Wunderground v.1.15,2013-02-11 19:08:00,
2013-02-11 14:13:00,64.6,47.1,29.69,West,262,15.0,25.0,53,0.00,,,0.02,538,Wunderground v.1.15,2013-02-11 19:13:00,
2013-02-11 14:19:00,64.6,46.1,29.69,West,277,14.0,25.0,51,0.00,,,0.02,675,Wunderground v.1.15,2013-02-11 19:19:00,
2013-02-11 14:24:00,64.8,45.7,29.69,WSW,239,13.0,25.0,50,0.00,,,0.02,385,Wunderground v.1.15,2013-02-11 19:24:00,
2013-02-11 14:30:00,64.8,45.7,29.69,WSW,249,14.0,14.0,50,0.00,,,0.02,527,Wunderground v.1.15,2013-02-11 19:30:00,
2013-02-11 14:35:00,65.0,45.9,29.69,SW,232,12.0,15.0,50,0.00,,,0.02,461,Wunderground v.1.15,2013-02-11 19:35:00,
2013-02-11 14:41:00,65.2,45.5,29.69,West,261,12.0,18.0,49,0.00,,,0.02,450,Wunderground v.1.15,2013-02-11 19:41:00,
2013-02-11 14:46:00,65.3,44.0,29.69,SSW,201,15.0,21.0,46,0.00,,,0.02,476,Wunderground v.1.15,2013-02-11 19:46:00,
2013-02-11 14:52:00,65.6,44.3,29.69,SW,221,14.0,17.0,46,0.00,,,0.02,332,Wunderground v.1.15,2013-02-11 19:52:00,
2013-02-11 14:57:00,65.6,44.8,29.69,WSW,242,12.0,17.0,47,0.00,,,0.02,352,Wunderground v.1.15,2013-02-11 19:57:00,
2013-02-11 15:03:00,65.5,43.0,29.70,South,180,12.0,15.0,44,0.00,,,0.02,406,Wunderground v.1.15,2013-02-11 20:03:00,
2013-02-11 15:09:00,65.4,43.5,29.70,WSW,238,11.0,22.0,45,0.00,,,0.02,272,Wunderground v.1.15,2013-02-11 20:09:00,
2013-02-11 15:15:00,65.0,42.5,29.70,SW,217,13.0,16.0,44,0.00,,,0.02,306,Wunderground v.1.15,2013-02-11 20:15:00,
2013-02-11 15:20:00,65.0,42.5,29.70,WSW,253,13.0,13.0,44,0.00,,,0.02,250,Wunderground v.1.15,2013-02-11 20:20:00,
2013-02-11 15:26:00,64.8,41.2,29.70,WSW,240,14.0,20.0,42,0.00,,,0.02,193,Wunderground v.1.15,2013-02-11 20:26:00,
2013-02-11 15:31:00,64.7,41.1,29.70,WSW,238,13.0,21.0,42,0.00,,,0.02,197,Wunderground v.1.15,2013-02-11 20:31:00,
2013-02-11 15:37:00,64.7,40.4,29.70,WSW,241,13.0,21.0,41,0.00,,,0.02,279,Wunderground v.1.15,2013-02-11 20:37:00,
2013-02-11 15:43:00,64.7,39.2,29.70,West,275,16.0,18.0,39,0.00,,,0.02,220,Wunderground v.1.15,2013-02-11 20:43:00,
2013-02-11 15:49:00,64.6,38.4,29.70,SW,221,18.0,31.0,38,0.00,,,0.02,267,Wunderground v.1.15,2013-02-11 20:49:00,
2013-02-11 15:54:00,64.6,37.0,29.69,SW,227,16.0,22.0,36,0.00,,,0.02,144,Wunderground v.1.15,2013-02-11 20:54:00,
2013-02-11 16:00:00,64.0,37.2,29.69,North,360,17.0,23.0,37,0.00,,,0.02,195,Wunderground v.1.15,2013-02-11 21:00:00,
2013-02-11 16:06:00,63.6,35.4,29.69,West,259,15.0,23.0,35,0.00,,,0.02,137,Wunderground v.1.15,2013-02-11 21:06:00,
2013-02-11 16:11:00,63.3,35.9,29.69,SW,215,15.0,15.0,36,0.00,,,0.02,181,Wunderground v.1.15,2013-02-11 21:11:00,
2013-02-11 16:17:00,62.7,36.0,29.69,WSW,241,16.0,24.0,37,0.00,,,0.02,127,Wunderground v.1.15,2013-02-11 21:17:00,
2013-02-11 16:22:00,62.4,37.1,29.70,SSW,209,13.0,14.0,39,0.00,,,0.02,116,Wunderground v.1.15,2013-02-11 21:22:00,
2013-02-11 16:27:00,62.4,35.8,29.69,North,360,13.0,19.0,37,0.00,,,0.02,109,Wunderground v.1.15,2013-02-11 21:27:00,
2013-02-11 16:33:00,62.1,36.2,29.70,SSW,198,11.0,12.0,38,0.00,,,0.02,63,Wunderground v.1.15,2013-02-11 21:33:00,
2013-02-11 16:38:00,61.7,34.5,29.69,SW,224,12.0,23.0,36,0.00,,,0.02,90,Wunderground v.1.15,2013-02-11 21:38:00,
2013-02-11 16:43:00,61.4,34.2,29.70,West,261,14.0,21.0,36,0.00,,,0.02,69,Wunderground v.1.15,2013-02-11 21:43:00,
2013-02-11 16:49:00,61.0,34.5,29.70,West,269,15.0,21.0,37,0.00,,,0.02,54,Wunderground v.1.15,2013-02-11 21:49:00,
2013-02-11 16:54:00,60.7,34.3,29.70,SW,225,15.0,29.0,37,0.00,,,0.02,39,Wunderground v.1.15,2013-02-11 21:54:00,
2013-02-11 17:00:00,60.5,33.4,29.69,SW,221,17.0,18.0,36,0.00,,,0.02,32,Wunderground v.1.15,2013-02-11 22:00:00,
2013-02-11 17:06:00,60.3,33.2,29.70,WSW,239,17.0,22.0,36,0.00,,,0.02,35,Wunderground v.1.15,2013-02-11 22:06:00,
2013-02-11 17:11:00,60.1,34.4,29.70,North,360,15.0,15.0,38,0.00,,,0.02,30,Wunderground v.1.15,2013-02-11 22:11:00,
2013-02-11 17:16:00,59.7,34.0,29.70,SW,219,14.0,20.0,38,0.00,,,0.02,18,Wunderground v.1.15,2013-02-11 22:16:00,
2013-02-11 17:22:00,59.3,33.7,29.70,SSW,213,14.0,14.0,38,0.00,,,0.02,16,Wunderground v.1.15,2013-02-11 22:22:00,
2013-02-11 17:27:00,59.3,33.7,29.70,SW,223,14.0,29.0,38,0.00,,,0.02,19,Wunderground v.1.15,2013-02-11 22:27:00,
2013-02-11 17:33:00,59.0,33.4,29.69,SW,214,15.0,16.0,38,0.00,,,0.02,23,Wunderground v.1.15,2013-02-11 22:33:00,
2013-02-11 17:38:00,58.6,33.0,29.69,SSW,202,13.0,23.0,38,0.00,,,0.02,12,Wunderground v.1.15,2013-02-11 22:38:00,
2013-02-11 17:44:00,58.5,32.3,29.70,SW,219,14.0,20.0,37,0.00,,,0.02,9,Wunderground v.1.15,2013-02-11 22:44:00,
2013-02-11 17:49:00,58.5,33.6,29.70,SSW,207,14.0,20.0,39,0.00,,,0.02,5,Wunderground v.1.15,2013-02-11 22:49:00,
2013-02-11 17:54:00,58.2,33.3,29.70,SW,221,12.0,19.0,39,0.00,,,0.02,0,Wunderground v.1.15,2013-02-11 22:54:00,
2013-02-11 18:00:00,57.6,32.8,29.70,WSW,243,12.0,26.0,39,0.00,,,0.02,0,Wunderground v.1.15,2013-02-11 23:00:00,
2013-02-11 18:06:00,57.4,32.0,29.70,SW,216,14.0,26.0,38,0.00,,,0.02,0,Wunderground v.1.15,2013-02-11 23:06:00,
2013-02-11 18:11:00,57.3,31.2,29.71,WSW,247,15.0,15.0,37,0.00,,,0.02,0,Wunderground v.1.15,2013-02-11 23:11:00,
2013-02-11 18:17:00,57.0,31.6,29.71,SW,229,12.0,15.0,38,0.00,,,0.02,0,Wunderground v.1.15,2013-02-11 23:17:00,
2013-02-11 18:22:00,56.6,32.5,29.71,West,266,8.0,10.0,40,0.00,,,0.02,0,Wunderground v.1.15,2013-02-11 23:22:00,
2013-02-11 18:27:00,56.1,31.5,29.72,West,271,8.0,20.0,39,0.00,,,0.02,0,Wunderground v.1.15,2013-02-11 23:27:00,
2013-02-11 18:33:00,56.0,30.7,29.72,SW,220,9.0,9.0,38,0.00,,,0.02,0,Wunderground v.1.15,2013-02-11 23:33:00,
2013-02-11 18:38:00,56.1,30.2,29.72,SW,216,8.0,14.0,37,0.00,,,0.02,0,Wunderground v.1.15,2013-02-11 23:38:00,
2013-02-11 18:44:00,55.9,30.6,29.73,SW,229,8.0,9.0,38,0.00,,,0.02,0,Wunderground v.1.15,2013-02-11 23:44:00,
2013-02-11 18:49:00,55.3,32.0,29.73,West,267,7.0,26.0,41,0.00,,,0.02,0,Wunderground v.1.15,2013-02-11 23:49:00,
2013-02-11 18:54:00,55.4,30.8,29.73,West,277,10.0,20.0,39,0.00,,,0.02,0,Wunderground v.1.15,2013-02-11 23:54:00,
2013-02-11 19:00:00,55.6,31.0,29.73,SW,223,13.0,13.0,39,0.00,,,0.02,0,Wunderground v.1.15,2013-02-12 00:00:00,
2013-02-11 19:06:00,55.1,32.4,29.74,West,273,11.0,14.0,42,0.00,,,0.02,0,Wunderground v.1.15,2013-02-12 00:06:00,
2013-02-11 19:11:00,55.0,31.1,29.74,West,261,11.0,11.0,40,0.00,,,0.02,0,Wunderground v.1.15,2013-02-12 00:11:00,
2013-02-11 19:17:00,54.7,32.0,29.74,SW,229,9.0,11.0,42,0.00,,,0.02,0,Wunderground v.1.15,2013-02-12 00:17:00,
2013-02-11 19:22:00,54.3,31.7,29.74,West,265,8.0,9.0,42,0.00,,,0.02,0,Wunderground v.1.15,2013-02-12 00:22:00,
2013-02-11 19:28:00,53.8,31.8,29.75,West,259,9.0,16.0,43,0.00,,,0.02,0,Wunderground v.1.15,2013-02-12 00:28:00,
2013-02-11 19:33:00,53.9,30.1,29.74,WNW,288,13.0,26.0,40,0.00,,,0.02,0,Wunderground v.1.15,2013-02-12 00:33:00,
2013-02-11 19:39:00,54.2,30.4,29.75,SW,231,16.0,26.0,40,0.00,,,0.02,0,Wunderground v.1.15,2013-02-12 00:39:00,
2013-02-11 19:44:00,54.1,30.3,29.75,WNW,294,13.0,16.0,40,0.00,,,0.02,0,Wunderground v.1.15,2013-02-12 00:44:00,
2013-02-11 19:50:00,53.9,30.1,29.76,WSW,250,9.0,10.0,40,0.00,,,0.02,0,Wunderground v.1.15,2013-02-12 00:50:00,
2013-02-11 19:55:00,53.8,30.6,29.77,WNW,302,10.0,13.0,41,0.00,,,0.02,0,Wunderground v.1.15,2013-02-12 00:55:00,
2013-02-11 20:00:00,53.6,30.4,29.77,WSW,245,10.0,10.0,41,0.00,,,0.02,0,Wunderground v.1.15,2013-02-12 01:00:00,
2013-02-11 20:06:00,53.1,30.6,29.76,West,273,10.0,16.0,42,0.00,,,0.02,0,Wunderground v.1.15,2013-02-12 01:06:00,
2013-02-11 20:12:00,53.0,31.1,29.77,WNW,289,13.0,20.0,43,0.00,,,0.02,0,Wunderground v.1.15,2013-02-12 01:12:00,
2013-02-11 20:17:00,52.8,30.9,29.77,NW,312,10.0,20.0,43,0.00,,,0.02,0,Wunderground v.1.15,2013-02-12 01:17:00,
2013-02-11 20:23:00,52.3,32.1,29.78,West,281,6.0,11.0,46,0.00,,,0.02,0,Wunderground v.1.15,2013-02-12 01:23:00,
2013-02-11 20:28:00,52.1,31.4,29.78,WSW,244,11.0,24.0,45,0.00,,,0.02,0,Wunderground v.1.15,2013-02-12 01:28:00,
2013-02-11 20:34:00,51.9,32.3,29.78,West,262,13.0,14.0,47,0.00,,,0.02,0,Wunderground v.1.15,2013-02-12 01:34:00,
2013-02-11 20:40:00,51.6,32.5,29.79,WSW,248,10.0,10.0,48,0.00,,,0.02,0,Wunderground v.1.15,2013-02-12 01:40:00,
2013-02-11 20:45:00,51.3,32.8,29.79,WNW,284,9.0,11.0,49,0.00,,,0.02,0,Wunderground v.1.15,2013-02-12 01:45:00,
2013-02-11 20:50:00,51.2,32.2,29.79,NW,310,10.0,10.0,48,0.00,,,0.02,0,Wunderground v.1.15,2013-02-12 01:50:00,
2013-02-11 20:56:00,50.9,32.9,29.80,WNW,295,7.0,10.0,50,0.00,,,0.02,0,Wunderground v.1.15,2013-02-12 01:56:00,
2013-02-11 21:02:00,49.9,35.3,29.80,NW,312,7.0,15.0,57,0.00,,,0.02,0,Wunderground v.1.15,2013-02-12 02:02:00,
2013-02-11 21:07:00,49.1,35.8,29.81,North,360,10.0,17.0,60,0.00,,,0.02,0,Wunderground v.1.15,2013-02-12 02:07:00,
2013-02-11 21:13:00,48.4,36.4,29.82,West,275,12.0,21.0,63,0.00,,,0.02,0,Wunderground v.1.15,2013-02-12 02:13:00,
2013-02-11 21:18:00,47.8,36.2,29.82,WNW,287,12.0,21.0,64,0.00,,,0.02,0,Wunderground v.1.15,2013-02-12 02:18:00,
2013-02-11 21:23:00,47.4,35.8,29.82,WNW,292,9.0,10.0,64,0.00,,,0.02,0,Wunderground v.1.15,2013-02-12 02:23:00,
2013-02-11 21:28:00,47.1,35.9,29.82,NNW,344,7.0,10.0,65,0.00,,,0.02,0,Wunderground v.1.15,2013-02-12 02:28:00,
2013-02-11 21:34:00,46.6,35.8,29.83,WSW,243,6.0,14.0,66,0.00,,,0.02,0,Wunderground v.1.15,2013-02-12 02:34:00,
2013-02-11 21:39:00,46.4,35.7,29.83,NW,317,7.0,14.0,66,0.00,,,0.02,0,Wunderground v.1.15,2013-02-12 02:39:00,
2013-02-11 21:45:00,46.2,35.8,29.83,WNW,302,8.0,16.0,67,0.00,,,0.02,0,Wunderground v.1.15,2013-02-12 02:45:00,
2013-02-11 21:50:00,46.2,35.8,29.83,West,273,11.0,11.0,67,0.00,,,0.02,0,Wunderground v.1.15,2013-02-12 02:50:00,
2013-02-11 21:56:00,46.0,35.7,29.83,WNW,300,12.0,16.0,67,0.00,,,0.02,0,Wunderground v.1.15,2013-02-12 02:56:00,
2013-02-11 22:01:00,45.9,35.6,29.83,NW,317,12.0,12.0,67,0.00,,,0.02,0,Wunderground v.1.15,2013-02-12 03:01:00,
2013-02-11 22:07:00,45.7,35.4,29.83,NNE,12,10.0,15.0,67,0.00,,,0.02,0,Wunderground v.1.15,2013-02-12 03:07:00,
2013-02-11 22:12:00,45.5,35.5,29.84,NW,311,10.0,13.0,68,0.00,,,0.02,0,Wunderground v.1.15,2013-02-12 03:12:00,
2013-02-11 22:17:00,45.5,35.5,29.84,NW,305,11.0,30.0,68,0.00,,,0.02,0,Wunderground v.1.15,2013-02-12 03:17:00,
2013-02-11 22:23:00,45.4,35.5,29.84,North,360,12.0,13.0,68,0.00,,,0.02,0,Wunderground v.1.15,2013-02-12 03:23:00,
2013-02-11 22:28:00,45.2,35.3,29.85,NW,317,9.0,20.0,68,0.00,,,0.02,0,Wunderground v.1.15,2013-02-12 03:28:00,
2013-02-11 22:33:00,45.1,35.2,29.84,NW,319,9.0,11.0,68,0.00,,,0.02,0,Wunderground v.1.15,2013-02-12 03:33:00,
2013-02-11 22:39:00,45.0,35.1,29.85,WNW,293,11.0,15.0,68,0.00,,,0.02,0,Wunderground v.1.15,2013-02-12 03:39:00,
2013-02-11 22:44:00,45.0,35.1,29.85,NW,306,10.0,13.0,68,0.00,,,0.02,0,Wunderground v.1.15,2013-02-12 03:44:00,
2013-02-11 22:49:00,45.2,35.3,29.85,West,263,10.0,13.0,68,0.00,,,0.02,0,Wunderground v.1.15,2013-02-12 03:49:00,
2013-02-11 22:55:00,44.9,35.0,29.85,WSW,248,8.0,17.0,68,0.00,,,0.02,0,Wunderground v.1.15,2013-02-12 03:55:00,
2013-02-11 23:00:00,44.6,34.7,29.85,SW,227,6.0,10.0,68,0.00,,,0.02,0,Wunderground v.1.15,2013-02-12 04:00:00,
2013-02-11 23:06:00,44.5,34.6,29.85,West,266,6.0,10.0,68,0.00,,,0.02,0,Wunderground v.1.15,2013-02-12 04:06:00,
2013-02-11 23:11:00,44.5,34.2,29.85,NNW,337,9.0,9.0,67,0.00,,,0.02,0,Wunderground v.1.15,2013-02-12 04:11:00,
2013-02-11 23:16:00,44.4,34.1,29.85,SW,229,8.0,14.0,67,0.00,,,0.02,0,Wunderground v.1.15,2013-02-12 04:16:00,
2013-02-11 23:22:00,44.3,34.0,29.85,NNW,338,8.0,11.0,67,0.00,,,0.02,0,Wunderground v.1.15,2013-02-12 04:22:00,
2013-02-11 23:27:00,44.5,33.8,29.84,WNW,291,8.0,17.0,66,0.00,,,0.02,0,Wunderground v.1.15,2013-02-12 04:27:00,
2013-02-11 23:33:00,44.7,33.3,29.83,West,278,10.0,15.0,64,0.00,,,0.02,0,Wunderground v.1.15,2013-02-12 04:33:00,
2013-02-11 23:38:00,44.6,33.2,29.84,WNW,291,12.0,20.0,64,0.00,,,0.02,0,Wunderground v.1.15,2013-02-12 04:38:00,
2013-02-11 23:43:00,44.6,32.8,29.84,West,271,13.0,18.0,63,0.00,,,0.02,0,Wunderground v.1.15,2013-02-12 04:43:00,
2013-02-11 23:49:00,44.7,32.5,29.85,West,273,9.0,18.0,62,0.00,,,0.02,0,Wunderground v.1.15,2013-02-12 04:49:00,
2013-02-11 23:54:00,44.7,32.9,29.85,WNW,297,7.0,16.0,63,0.00,,,0.02,0,Wunderground v.1.15,2013-02-12 04:54:00,
2013-02-11 23:59:00,44.6,33.6,29.85,West,279,7.0,16.0,65,0.00,,,0.00,0,Wunderground v.1.15,2013-02-12 04:59:00,